Precipitable_Water
0.78 0.91 1.02 0.80 0.38 0.30 0.26 0.29 0.49 0.45 0.43 0.47 0.54 0.60 0.63 0.73 0.84 0.78 1.52 1.54 1.45 1.41 1.70 1.76 1.76 1.58 1.46 1.45 1.41 1.30 1.29 1.29 1.30 1.23 1.17 1.04 1.04 1.17 1.29 1.32 1.45 1.61 1.55 1.56 1.63 1.63 1.62 1.65 1.55
0.66 0.86 0.79 0.59 0.26 0.23 0.24 0.39 0.37 0.41 0.45 0.51 0.55 0.64 0.66 0.97 1.06 1.17 1.28 1.40 1.53 1.42 1.73 1.72 1.73 1.64 1.57 1.54 1.50 1.43 1.44 1.53 1.44 1.31 1.19 1.08 1.04 1.10 1.22 1.35 1.48 1.62 1.55 1.53 1.60 1.52 1.56 1.51 1.44
0.56 0.75 0.58 0.40 0.28 0.21 0.23 0.38 0.39 0.36 0.43 0.48 0.50 0.61 0.85 1.03 1.08 1.16 1.36 1.39 1.32 1.35 1.70 1.73 1.67 1.65 1.62 1.75 1.67 1.57 1.61 1.61 1.50 1.36 1.27 1.10 1.04 1.10 1.18 1.28 1.42 1.45 1.47 1.44 1.47 1.40 1.41 1.29 1.22
0.57 0.60 0.50 0.28 0.24 0.30 0.26 0.42 0.35 0.29 0.42 0.46 0.49 0.47 0.85 1.05 1.10 1.29 1.44 1.36 1.23 1.33 1.66 1.78 1.68 1.69 1.74 1.73 1.77 1.64 1.59 1.63 1.55 1.49 1.29 1.17 1.08 1.12 1.21 1.26 1.34 1.34 1.30 1.30 1.30 1.29 1.29 1.20 1.18
0.67 0.62 0.33 0.25 0.24 0.31 0.36 0.40 0.29 0.24 0.30 0.33 0.44 0.47 0.73 1.07 1.20 1.35 1.44 1.36 1.23 1.35 1.66 1.71 1.71 1.70 1.74 1.76 1.77 1.72 1.68 1.66 1.60 1.55 1.38 1.19 1.10 1.16 1.22 1.25 1.35 1.28 1.37 1.35 1.36 1.34 1.43 1.32 1.29
0.46 0.40 0.21 0.19 0.22 0.27 0.30 0.33 0.26 0.24 0.26 0.29 0.29 0.38 0.68 1.03 1.10 1.30 1.43 1.43 1.30 1.41 1.56 1.64 1.72 1.72 1.75 1.76 1.79 1.78 1.79 1.76 1.63 1.56 1.42 1.29 1.16 1.22 1.32 1.35 1.39 1.33 1.40 1.35 1.36 1.43 1.54 1.44 1.43
0.38 0.28 0.18 0.18 0.18 0.20 0.24 0.32 0.24 0.27 0.28 0.28 0.33 0.27 0.57 0.85 1.04 1.27 1.42 1.54 1.51 1.46 1.50 1.73 1.72 1.69 1.76 1.81 1.89 1.84 1.79 1.83 1.75 1.60 1.48 1.36 1.24 1.22 1.32 1.38 1.34 1.36 1.39 1.33 1.33 1.45 1.42 1.43 1.32
0.40 0.29 0.19 0.19 0.18 0.21 0.30 0.28 0.30 0.27 0.27 0.38 0.33 0.29 0.38 0.73 0.83 1.10 1.31 1.41 1.55 1.48 1.49 1.66 1.67 1.74 1.75 1.79 1.86 2.02 1.93 1.91 1.87 1.72 1.60 1.44 1.30 1.24 1.33 1.34 1.36 1.39 1.39 1.35 1.26 1.47 1.34 1.36 1.25
0.43 0.25 0.20 0.24 0.24 0.23 0.32 0.24 0.34 0.36 0.28 0.34 0.37 0.35 0.48 0.50 0.67 0.83 0.97 1.14 1.29 1.48 1.53 1.68 1.61 1.68 1.82 1.83 1.80 1.84 2.06 2.03 2.01 1.87 1.74 1.62 1.37 1.28 1.29 1.34 1.40 1.53 1.51 1.38 1.23 1.24 1.39 1.27 1.23
0.33 0.27 0.25 0.30 0.29 0.26 0.30 0.28 0.30 0.32 0.32 0.35 0.38 0.42 0.46 0.49 0.54 0.61 0.77 0.83 1.07 1.15 1.37 1.58 1.62 1.64 1.77 1.79 1.91 1.96 1.90 1.99 2.03 1.95 1.88 1.77 1.56 1.39 1.37 1.52 1.44 1.46 1.54 1.37 1.21 1.29 1.30 1.19 1.15
0.37 0.24 0.33 0.29 0.30 0.30 0.29 0.30 0.33 0.32 0.31 0.38 0.38 0.43 0.45 0.48 0.51 0.50 0.54 0.65 0.78 1.08 1.22 1.41 1.57 1.64 1.68 1.78 1.76 1.82 1.85 1.84 1.93 2.00 1.95 1.96 1.77 1.64 1.65 1.60 1.51 1.63 1.64 1.39 1.16 1.19 1.15 1.20 1.12
0.27 0.32 0.30 0.35 0.34 0.34 0.33 0.39 0.36 0.37 0.38 0.48 0.45 0.48 0.49 0.50 0.53 0.55 0.57 0.59 0.62 0.70 0.95 1.34 1.41 1.48 1.62 1.70 1.69 1.66 1.68 1.73 1.75 1.92 1.84 1.85 1.89 1.77 1.67 1.70 1.57 1.66 1.67 1.33 1.05 1.00 0.97 0.98 1.00
0.29 0.33 0.36 0.37 0.36 0.37 0.41 0.37 0.37 0.38 0.44 0.48 0.49 0.50 0.50 0.53 0.56 0.60 0.65 0.68 0.70 0.67 0.74 0.99 1.33 1.45 1.49 1.50 1.58 1.62 1.57 1.63 1.68 1.63 1.49 1.50 1.79 1.79 1.73 1.80 1.73 1.58 1.62 1.29 1.02 0.95 0.90 0.88 0.94
0.41 0.37 0.37 0.38 0.38 0.40 0.35 0.35 0.39 0.39 0.46 0.45 0.47 0.49 0.53 0.55 0.58 0.61 0.64 0.66 0.70 0.76 0.77 0.79 0.90 1.25 1.48 1.42 1.42 1.48 1.52 1.57 1.51 1.47 1.31 1.29 1.37 1.45 1.59 1.78 1.75 1.54 1.48 1.21 0.95 0.88 0.89 0.96 0.98
0.38 0.31 0.32 0.31 0.35 0.36 0.39 0.30 0.32 0.42 0.46 0.43 0.46 0.50 0.55 0.57 0.61 0.61 0.66 0.68 0.72 0.73 0.81 0.82 0.82 0.87 1.16 1.35 1.40 1.38 1.35 1.40 1.47 1.37 1.33 1.25 1.24 1.31 1.61 1.62 1.80 1.67 1.53 1.13 0.88 0.86 0.90 0.91 0.93
0.31 0.30 0.21 0.31 0.33 0.34 0.34 0.20 0.32 0.45 0.43 0.40 0.46 0.51 0.55 0.58 0.63 0.69 0.74 0.77 0.79 0.81 0.76 0.83 0.88 0.85 0.90 1.16 1.25 1.28 1.30 1.34 1.35 1.30 1.30 1.31 1.39 1.48 1.63 1.54 1.60 1.53 1.50 1.14 0.86 0.82 0.86 0.88 0.91
0.31 0.20 0.24 0.26 0.32 0.28 0.31 0.23 0.31 0.44 0.40 0.39 0.45 0.50 0.54 0.59 0.67 0.74 0.79 0.83 0.85 0.89 0.88 0.82 0.87 0.87 0.94 1.04 1.14 1.13 1.18 1.23 1.25 1.21 1.32 1.45 1.43 1.55 1.59 1.53 1.63 1.36 1.46 1.17 0.92 0.83 0.86 0.86 0.90
0.26 0.26 0.24 0.23 0.27 0.30 0.24 0.23 0.28 0.34 0.41 0.40 0.44 0.49 0.55 0.62 0.65 0.74 0.82 0.86 0.89 0.93 0.92 0.94 0.87 0.88 1.00 1.10 1.11 1.10 1.10 1.12 1.19 1.27 1.33 1.44 1.58 1.56 1.63 1.58 1.57 1.33 1.42 1.16 1.00 0.84 0.85 0.86 0.87
0.32 0.30 0.26 0.29 0.28 0.25 0.21 0.23 0.30 0.36 0.41 0.42 0.47 0.52 0.57 0.59 0.71 0.76 0.79 0.81 0.84 0.89 0.87 0.92 0.92 0.86 1.03 1.06 1.04 1.01 0.95 1.08 1.20 1.31 1.33 1.49 1.63 1.61 1.59 1.58 1.48 1.37 1.36 1.17 1.05 0.92 0.82 0.85 0.87
0.33 0.27 0.27 0.29 0.29 0.25 0.22 0.22 0.27 0.33 0.37 0.42 0.48 0.51 0.55 0.63 0.71 0.79 0.86 0.90 0.88 0.85 0.88 0.94 0.92 0.93 1.03 1.09 1.12 1.11 1.10 1.17 1.27 1.39 1.40 1.58 1.62 1.61 1.55 1.53 1.39 1.39 1.33 1.18 1.09 0.98 0.85 0.84 0.86
0.29 0.27 0.28 0.25 0.27 0.25 0.24 0.23 0.30 0.36 0.40 0.45 0.48 0.53 0.61 0.68 0.73 0.81 0.85 0.92 0.97 0.94 0.99 1.02 1.02 1.04 1.08 1.09 1.18 1.14 1.18 1.21 1.23 1.36 1.44 1.54 1.59 1.53 1.49 1.45 1.33 1.39 1.36 1.18 1.12 1.04 0.93 0.81 0.86
0.26 0.32 0.31 0.26 0.22 0.18 0.33 0.17 0.28 0.38 0.35 0.39 0.45 0.52 0.64 0.72 0.78 0.83 0.88 0.91 0.99 1.06 1.11 1.12 1.08 1.04 1.10 1.12 1.18 1.18 1.12 1.09 1.25 1.36 1.47 1.53 1.55 1.51 1.46 1.40 1.37 1.44 1.34 1.19 1.11 1.09 1.02 0.94 0.83
0.31 0.34 0.30 0.27 0.24 0.23 0.24 0.24 0.26 0.37 0.29 0.35 0.43 0.52 0.65 0.72 0.77 0.82 0.89 0.94 1.01 1.09 1.14 1.18 1.14 1.14 1.20 1.22 1.28 1.26 1.17 1.24 1.35 1.43 1.46 1.50 1.53 1.49 1.43 1.35 1.43 1.33 1.21 1.16 1.15 1.12 1.06 1.01 0.94
0.37 0.33 0.32 0.30 0.26 0.18 0.25 0.27 0.21 0.31 0.27 0.34 0.41 0.54 0.64 0.70 0.77 0.85 0.92 0.99 1.02 1.07 1.08 1.08 1.08 1.12 1.21 1.31 1.23 1.33 1.31 1.35 1.30 1.40 1.39 1.43 1.41 1.44 1.42 1.33 1.35 1.22 1.14 1.15 1.19 1.15 1.09 1.07 1.04
0.33 0.28 0.22 0.22 0.24 0.20 0.34 0.25 0.22 0.36 0.33 0.32 0.41 0.53 0.63 0.71 0.76 0.81 0.86 0.91 0.99 1.03 1.07 1.11 1.14 1.14 1.20 1.24 1.24 1.22 1.23 1.28 1.34 1.36 1.42 1.40 1.36 1.41 1.44 1.34 1.33 1.16 1.13 1.16 1.14 1.11 1.09 1.13 1.09
0.30 0.28 0.23 0.16 0.20 0.24 0.30 0.17 0.24 0.35 0.39 0.39 0.46 0.55 0.62 0.68 0.74 0.80 0.86 0.89 0.98 1.04 1.08 1.10 1.07 1.11 1.18 1.17 1.21 1.21 1.21 1.23 1.42 1.36 1.38 1.40 1.41 1.47 1.53 1.47 1.34 1.15 1.09 1.02 1.04 1.07 1.08 1.17 1.13
0.30 0.26 0.30 0.25 0.26 0.20 0.20 0.24 0.32 0.35 0.36 0.36 0.44 0.52 0.56 0.63 0.72 0.78 0.86 0.91 0.94 0.97 1.02 1.05 1.09 1.12 1.16 1.22 1.23 1.23 1.29 1.33 1.34 1.38 1.43 1.39 1.42 1.42 1.45 1.45 1.42 1.35 1.25 1.17 1.13 1.09 1.10 1.16 1.16
0.33 0.36 0.24 0.26 0.18 0.17 0.19 0.20 0.21 0.28 0.29 0.32 0.41 0.48 0.55 0.61 0.66 0.75 0.81 0.88 0.94 0.98 0.97 0.99 1.06 1.04 1.06 1.08 1.12 1.16 1.22 1.28 1.35 1.35 1.33 1.35 1.38 1.40 1.41 1.41 1.40 1.38 1.36 1.32 1.24 1.15 1.10 1.07 1.08
0.31 0.29 0.29 0.30 0.24 0.19 0.16 0.18 0.25 0.28 0.28 0.29 0.40 0.50 0.57 0.61 0.62 0.67 0.77 0.84 0.88 0.90 0.90 0.93 0.94 0.96 1.02 1.05 1.08 1.08 1.12 1.16 1.20 1.20 1.25 1.33 1.39 1.38 1.38 1.40 1.40 1.38 1.34 1.33 1.26 1.17 1.13 1.10 1.09
0.35 0.30 0.29 0.22 0.22 0.22 0.19 0.21 0.29 0.31 0.30 0.30 0.43 0.51 0.58 0.64 0.66 0.68 0.70 0.75 0.77 0.82 0.85 0.89 0.96 1.00 1.05 1.07 1.06 1.05 1.09 1.15 1.17 1.18 1.20 1.25 1.21 1.30 1.31 1.34 1.33 1.33 1.34 1.34 1.30 1.25 1.21 1.14 1.08
Wind_Speed
11 10 9 8 8 8 10 7 6 6 6 6 8 7 8 8 8 7 8 7 9 11 12 14 14 14 13 13 12 12 12 11 10 9 8 8 8 8 7 7 6 5 5 5 5 5 5 6 5
10 9 8 8 9 9 8 6 8 6 8 8 8 9 9 5 7 8 10 12 12 13 13 15 15 15 15 14 14 14 13 12 11 10 9 9 9 9 8 8 7 6 6 5 5 4 4 4 4
10 10 9 8 10 11 7 7 7 8 8 8 9 9 8 9 8 10 12 13 13 14 15 17 17 17 17 17 16 16 15 14 13 12 11 10 11 10 9 9 8 7 6 6 4 4 3 3 3
9 9 10 11 12 8 9 7 8 10 9 9 9 11 9 10 12 13 13 13 12 14 15 18 19 19 19 18 18 17 17 17 15 14 12 12 12 12 11 10 9 8 7 6 5 4 4 4 5
9 10 12 12 12 9 10 9 10 10 10 10 10 11 11 11 13 13 14 13 14 16 17 19 20 21 21 21 20 20 19 18 18 16 14 14 13 13 12 12 10 9 8 7 6 5 5 6 6
9 10 11 12 12 10 10 10 10 11 11 11 13 13 12 13 14 15 15 15 16 18 19 20 23 23 24 24 23 22 21 21 20 18 17 16 15 14 13 13 11 10 9 8 7 7 7 7 7
11 11 13 12 11 11 12 9 12 11 12 13 12 14 12 13 15 16 17 17 18 20 21 22 24 26 26 26 25 25 24 23 22 21 19 18 17 16 15 14 13 12 10 9 9 8 8 8 8
9 9 11 11 11 12 9 10 10 12 12 12 13 13 13 14 16 17 18 19 20 21 23 23 25 27 28 28 27 26 25 25 24 23 21 20 19 19 17 16 15 13 12 11 10 10 10 9 9
9 10 11 11 11 10 9 11 10 12 14 13 14 16 16 18 19 19 20 20 21 21 23 25 25 26 27 28 29 29 26 25 26 25 24 22 21 21 20 18 17 15 13 12 12 11 11 11 10
10 11 9 8 10 10 10 12 13 13 14 15 15 15 16 18 19 20 20 22 22 24 25 25 26 27 27 27 27 28 29 28 27 26 27 25 24 23 22 20 19 17 15 14 13 13 12 12 11
9 11 8 10 11 11 12 13 14 15 16 16 15 16 17 18 18 19 21 22 23 24 25 27 27 27 28 27 28 27 27 29 28 30 24 25 26 25 23 22 20 19 17 15 15 15 13 13 12
11 12 11 10 10 11 13 14 15 16 17 15 16 17 18 19 19 20 21 22 23 24 26 27 28 29 29 29 28 29 28 30 29 23 18 22 25 25 24 23 22 21 18 16 16 16 15 14 12
14 13 12 12 13 14 15 17 18 19 18 17 17 19 20 21 22 23 24 24 24 24 25 26 27 28 30 30 29 28 29 29 31 31 24 24 23 19 25 25 24 22 20 19 17 17 16 15 14
10 13 14 14 15 16 17 18 18 18 19 18 19 20 21 22 23 25 26 26 26 26 26 26 27 28 30 31 30 29 28 31 31 31 31 25 26 22 28 25 26 24 22 19 19 18 17 16 15
14 15 16 17 17 17 15 19 20 19 16 19 20 21 22 23 25 27 28 27 28 28 28 28 28 28 29 31 31 31 29 30 32 32 32 30 28 26 25 26 26 25 23 21 20 19 18 17 16
14 16 16 10 13 14 14 19 17 14 17 20 21 22 23 25 28 30 30 30 30 30 29 29 29 28 28 30 31 31 30 30 31 31 32 32 30 28 27 25 27 26 24 24 22 21 20 18 17
14 16 13 14 13 15 15 17 16 15 18 20 21 22 24 27 30 32 31 31 33 33 32 31 30 29 28 28 29 30 30 29 29 30 30 32 33 33 30 28 24 28 25 23 22 22 21 20 18
13 14 15 15 13 15 19 22 21 21 18 20 21 22 25 28 31 32 33 32 31 31 30 31 30 29 28 26 26 27 27 27 27 28 30 32 35 35 31 30 27 26 27 25 23 23 23 21 19
18 18 19 18 16 17 21 21 20 19 19 19 20 21 24 28 30 28 27 26 23 21 23 26 28 29 28 25 24 24 25 25 25 27 29 31 33 36 33 31 29 27 27 27 24 24 23 22 21
18 20 20 19 16 17 21 22 21 19 18 17 16 19 23 26 24 24 23 19 13 10 14 20 24 26 27 25 22 21 21 21 22 22 25 28 31 33 34 32 30 28 28 28 25 25 23 23 22
19 20 20 19 18 20 21 24 17 13 13 12 14 17 20 20 20 20 19 15 10 4 7 13 19 22 24 23 22 19 19 19 20 22 23 29 31 30 32 33 30 28 29 28 26 25 24 23 23
18 18 17 18 16 15 10 14 13 10 11 11 12 15 16 17 16 16 15 13 10 4 4 9 15 19 21 22 20 19 19 17 19 22 26 28 29 29 30 31 29 29 28 28 26 26 24 24 23
18 12 14 15 17 19 19 14 13 8 10 10 10 12 12 14 13 13 12 11 9 6 6 7 11 14 16 18 18 16 16 15 16 21 25 29 29 29 29 31 29 29 28 26 26 26 25 24 24
11 13 14 15 15 15 18 13 11 9 10 6 8 8 10 10 11 10 9 8 8 6 5 6 8 10 12 14 16 15 14 12 11 19 24 30 30 28 29 29 27 28 27 27 25 25 25 25 25
15 13 10 10 10 10 6 10 15 6 6 6 5 5 7 8 8 8 7 6 6 6 4 4 5 6 8 10 12 13 11 13 11 15 22 26 29 28 28 29 27 27 26 25 25 25 25 25 24
20 18 11 10 10 9 8 11 8 6 5 4 4 3 4 6 6 6 5 4 5 5 5 3 3 3 6 8 9 9 8 5 12 12 21 23 26 24 25 27 27 26 26 25 24 24 24 24 24
17 20 19 18 17 14 12 13 9 8 7 5 4 3 2 4 4 4 4 3 3 3 3 4 4 4 4 4 4 4 5 7 10 11 16 20 22 22 23 25 25 27 27 26 24 25 26 25 25
21 16 14 15 11 11 11 12 10 9 10 7 6 5 2 1 2 3 3 3 2 1 2 3 3 4 3 2 4 4 6 7 9 10 12 14 17 16 17 22 28 26 25 24 25 25 25 24 24
21 21 17 15 15 10 9 7 6 9 10 8 7 6 4 2 1 2 3 3 4 3 3 3 4 3 3 4 4 5 7 7 9 10 11 12 12 12 13 15 20 21 23 21 22 24 24 24 25
28 25 24 17 15 14 13 9 7 7 8 7 7 7 6 4 2 2 3 3 4 4 4 4 4 4 4 4 6 7 7 8 9 11 10 11 10 11 11 13 16 16 19 20 21 22 23 23 23
Wind_Direction
258 259 259 260 256 248 248 238 255 245 247 277 276 269 287 280 295 279 278 274 262 238 229 225 227 226 223 222 220 218 216 214 211 211 210 206 199 192 186 180 173 165 156 145 132 125 117 101 92
250 250 249 254 251 243 238 233 234 254 267 274 272 271 261 260 288 271 267 282 262 242 234 231 231 230 228 227 224 222 219 217 216 215 214 211 206 200 195 188 183 175 170 161 149 139 134 118 100
243 241 248 245 248 250 264 238 251 261 262 270 271 268 279 278 288 279 287 282 261 243 242 237 233 232 231 230 228 226 224 221 220 218 218 216 211 206 202 199 195 191 186 182 174 166 161 148 125
236 239 246 245 248 248 259 244 262 262 254 262 275 269 271 279 280 285 284 278 255 248 248 240 237 235 233 232 230 228 226 223 222 220 219 218 213 210 208 204 202 200 196 193 192 183 171 154 138
236 247 246 245 251 252 252 263 265 262 263 268 278 271 274 283 282 285 284 277 260 254 251 246 241 237 235 234 232 230 228 226 224 222 221 218 214 211 209 206 205 202 199 196 193 182 167 158 148
242 247 244 246 247 250 258 255 260 261 265 271 274 275 275 283 285 284 280 276 265 260 256 250 243 240 236 234 233 232 230 226 225 224 222 219 216 212 209 207 205 204 201 198 192 181 168 159 153
245 241 252 261 258 256 256 256 258 263 268 274 278 276 278 287 287 284 280 276 270 264 256 253 246 242 238 235 234 233 230 227 225 224 222 220 217 214 211 209 207 204 202 199 194 188 178 171 165
240 245 254 252 255 260 251 259 265 264 270 278 277 282 280 292 290 284 282 278 274 265 256 253 248 243 238 235 234 233 230 227 225 224 222 221 219 216 214 211 208 206 203 201 195 187 183 178 170
240 247 254 252 256 264 253 261 258 269 270 270 276 280 288 289 286 285 282 279 274 268 258 254 248 242 237 237 234 232 230 228 226 224 223 221 221 217 216 214 209 207 205 204 199 193 185 181 177
239 251 263 267 266 264 262 267 268 271 268 273 276 279 288 291 288 284 281 279 272 266 259 253 247 243 241 238 235 230 231 228 227 226 221 223 220 217 215 212 210 209 206 203 199 195 191 188 188
241 251 267 262 263 266 271 269 265 271 272 277 281 287 290 293 292 289 284 282 275 267 256 251 248 243 240 237 235 232 230 227 227 223 231 222 220 215 214 212 210 207 204 205 203 198 202 201 199
255 251 258 266 265 269 270 273 271 269 274 282 282 286 289 292 293 292 289 284 275 266 257 251 248 244 240 238 236 234 233 227 225 220 233 229 217 217 215 213 210 207 207 209 207 206 206 203 202
252 260 260 263 267 271 274 273 275 276 276 278 282 285 288 291 293 293 291 285 276 266 258 252 247 243 239 237 235 233 232 230 228 232 238 232 221 219 216 213 210 211 211 211 209 208 204 203 200
269 265 265 266 270 274 273 275 273 278 274 277 282 284 288 291 294 294 291 285 277 267 259 252 247 243 239 236 234 233 232 231 232 234 236 236 236 231 219 215 212 212 212 212 210 207 204 202 200
262 268 270 266 268 269 279 278 272 279 275 279 281 285 289 293 296 295 293 286 278 269 261 252 246 244 239 235 234 234 235 234 235 238 239 240 239 232 216 216 213 214 213 211 209 206 204 203 201
262 265 273 266 266 268 273 285 292 278 281 283 284 288 292 296 298 298 294 287 279 269 260 251 244 241 238 235 233 232 233 236 238 241 240 239 233 223 217 214 218 215 213 210 208 206 204 204 204
252 268 262 273 264 273 267 286 295 288 286 288 289 291 297 301 303 301 298 290 282 269 258 248 241 237 235 233 231 232 234 236 239 241 240 236 226 219 219 219 215 210 209 209 209 208 206 205 206
275 258 269 273 271 270 275 280 285 286 287 290 293 297 302 307 309 309 303 296 285 268 254 243 237 232 230 228 228 229 232 235 238 241 239 233 224 218 220 214 211 210 212 211 210 209 208 208 209
275 273 275 277 280 279 279 281 288 287 286 290 296 303 310 315 317 317 315 309 295 265 247 235 229 225 222 222 225 227 230 233 239 242 235 227 220 215 214 213 212 210 212 211 211 209 210 210 211
262 268 271 276 280 279 282 284 287 284 288 293 301 310 318 323 328 330 328 327 311 270 235 226 219 217 216 217 223 226 228 233 239 235 226 215 209 211 214 211 212 215 212 209 210 210 210 213 213
259 263 270 277 284 281 280 288 272 278 285 294 302 317 326 333 337 341 347 346 345 309 229 214 208 210 209 214 218 223 225 237 235 228 222 214 210 209 209 209 211 210 207 208 211 210 212 214 216
263 264 264 273 278 280 283 289 287 266 277 289 307 325 335 341 346 351 358 5 13 20 167 185 196 201 206 208 214 220 229 232 233 228 221 209 206 205 203 204 206 208 209 212 212 213 215 217 219
262 264 264 269 273 280 277 273 277 261 274 281 308 327 340 347 355 2 6 17 30 59 105 146 173 185 194 203 215 216 218 226 228 227 206 200 200 202 203 205 209 210 210 210 213 214 217 220 223
249 256 262 267 269 271 266 246 282 261 270 290 306 325 344 352 2 10 16 28 45 68 102 133 162 183 200 207 209 211 220 222 234 208 200 203 198 200 202 203 206 209 210 212 215 217 221 225 227
238 247 261 260 249 267 276 262 266 281 278 286 297 319 348 360 4 16 23 39 52 64 83 122 153 178 197 203 208 219 230 247 242 195 189 193 198 201 205 205 209 208 209 213 217 219 222 226 229
233 233 241 254 258 265 264 264 277 256 253 273 287 312 350 3 11 21 34 47 61 69 69 93 141 163 195 203 212 228 242 232 187 187 187 186 188 192 195 203 208 211 212 215 219 222 226 229 234
229 237 246 262 262 270 255 259 262 244 238 247 248 258 322 8 25 32 47 66 84 73 70 87 114 125 150 181 204 213 194 172 147 153 175 186 193 202 209 214 213 216 216 220 224 229 231 235 237
234 228 229 236 249 257 244 255 258 228 229 231 230 228 223 14 37 48 57 72 98 104 101 111 110 112 135 167 178 169 159 158 165 158 161 171 184 197 215 216 213 218 217 222 228 227 232 236 240
224 225 233 236 237 258 268 255 296 221 221 219 221 216 210 201 159 73 78 88 93 104 124 136 129 115 105 125 149 162 160 162 164 169 166 174 179 189 190 199 200 212 217 224 226 228 234 241 247
224 226 226 231 232 241 263 264 252 216 212 210 209 206 204 196 174 145 119 112 106 108 113 127 143 134 117 120 135 135 145 156 157 167 175 176 181 187 188 194 201 213 220 223 227 233 237 242 246